Find Hodoyoshi-4

NORAD ID: 40011 Int'l Des: 2014-033 Owner: TOK Country: J operational
LEOCIRCULARRETROGRADESSO

实时位置

正在加载3D地球...

关于 Hodoyoshi-4

正在加载描述...

即将过境

Passes for default location (London). Set your location on the main map for personalized predictions.

高度历史

Loading altitude history...

两行轨道根数

1 40011U 14033B 26104.95957853 .00001258 00000-0 14213-3 0 9991
2 40011 97.5465 292.8389 0024306 151.7482 208.5059 14.87976603639400
Epoch: Apr 14, 2026 • Age: 6 hours

当前状态

高度 616.1 km
速度 7.55 km/s
星下点 -43.70°S, 170.63°W
发射日期 Jun 19, 2014
运行时间 11.8 years
类型 other

技术详情

分类 Payload
质量 64.00 kg
干质量 64.00 kg
总质量 64.00 kg
长度 0.70 m
直径 0.50 m
跨度 1.50 m
形状 Box+ 2 pan
制造商 AXEL
平台类型 Hodoyoshi
阶段状态 In Orbit
所有者/国家 TOK/J

Most Searched